Location: Ostrava
(49.8330°N, 18.2830°E)
Time: 16:11:27
(UTC+02:00)

Cosmos 1400 Rocket - Visible Passes

Search period start: 30 August 2014 00:00
Search period end: 09 September 2014 00:00
Orbit: 530 x 581 km, 81.2° (Epoch: 30 August)

Date Brightness Start Highest point End Pass type
(mag) Time Alt. Az. Time Alt. Az. Time Alt. Az.
30 Aug 5.6 01:30:48 12° ENE 01:30:48 12° ENE 01:31:39 10° ENE visible
30 Aug 3.3 03:06:39 51° NNW 03:06:39 51° NNW 03:09:52 10° N visible
31 Aug 5.5 01:28:24 13° ENE 01:28:24 13° ENE 01:29:22 10° NE visible
31 Aug 3.6 03:04:15 42° NNW 03:04:15 42° NNW 03:07:13 10° N visible
01 Sep 5.5 01:26:00 14° ENE 01:26:00 14° ENE 01:27:00 10° NE visible
01 Sep 3.9 03:01:50 35° NNW 03:01:50 35° NNW 03:04:33 10° N visible
02 Sep 5.5 01:23:34 15° NE 01:23:34 15° NE 01:24:34 10° NE visible
02 Sep 4.2 02:59:24 30° NNW 02:59:24 30° NNW 03:01:52 10° N visible
03 Sep 5.5 01:21:07 15° NE 01:21:07 15° NE 01:22:06 10° NE visible
03 Sep 4.5 02:56:57 26° NNW 02:56:57 26° NNW 02:59:11 10° N visible
04 Sep 5.5 01:18:39 15° NE 01:18:39 15° NE 01:19:37 10° NE visible
04 Sep 4.7 02:54:29 23° NNW 02:54:29 23° NNW 02:56:28 10° N visible
05 Sep 5.6 01:16:11 15° NE 01:16:11 15° NE 01:17:05 10° NNE visible
05 Sep 4.9 02:52:01 20° NNW 02:52:01 20° NNW 02:53:45 10° N visible
06 Sep 5.6 01:13:41 15° NE 01:13:41 15° NE 01:14:33 10° NNE visible
06 Sep 5.1 02:49:31 18° NNW 02:49:31 18° NNW 02:51:00 10° NNW visible
07 Sep 5.7 01:11:11 15° NNE 01:11:11 15° NNE 01:11:59 10° NNE visible
07 Sep 5.2 02:47:01 16° NNW 02:47:01 16° NNW 02:48:14 10° NNW visible
08 Sep 5.7 01:08:41 15° NNE 01:08:41 15° NNE 01:09:25 10° NNE visible
08 Sep 5.4 02:44:31 14° NNW 02:44:31 14° NNW 02:45:27 10° NNW visible
